Overview Statistics Trail Chart Weather Telemetry Raw packets
 

This is the latest recevied weather packets stored in our database for station/object Waldburg. If no packets are shown the sender has not sent any weather packets the latest 10 day(s).

<< 9 10 11 12 13 14 15 >>
Time Temp. Humidity Pressure Rain* Wind** Luminosity Snow
1788228129 15° C 73% 1019.8 hPa 0 mm - - -
1788226329 15° C 73% 1019.8 hPa 0 mm - - -
1788224529 15.56° C 73% 1019.8 hPa 0 mm - - -
1788222731 15.56° C 74% 1019.6 hPa 0 mm - - -
1788220931 16.11° C 71% 1019.7 hPa 0 mm - - -
1788219131 17.22° C 68% 1019.7 hPa 0 mm - - -
1788217331 17.22° C 66% 1019.4 hPa 0 mm - - -
1788215533 17.22° C 65% 1019.6 hPa 0 mm - - -
1788211930 16.67° C 66% 1019.5 hPa 4.57 mm - - -
1788210131 16.67° C 65% 1019.4 hPa 4.57 mm - - -
1788208331 17.22° C 63% 1019.1 hPa 4.57 mm - - -
1788206531 17.78° C 61% 1018.8 hPa 4.57 mm - - -
1788204730 18.33° C 60% 1018.6 hPa 4.57 mm - - -
1788202931 18.33° C 57% 1017.9 hPa 4.57 mm - - -
1788201131 19.44° C 54% 1017.1 hPa 4.57 mm - - -
1788199330 20° C 60% 1016.6 hPa 4.57 mm - - -
1788197531 20° C 60% 1016.2 hPa 4.57 mm - - -
1788195731 20.56° C 58% 1016 hPa 4.57 mm - - -
1788193930 21.67° C 55% 1015.8 hPa 4.57 mm - - -
1788192131 21.67° C 52% 1015.5 hPa 4.57 mm - - -
1788190331 22.22° C 52% 1015.4 hPa 4.57 mm - - -
1788188531 22.78° C 51% 1015.7 hPa 4.57 mm - - -
1788186730 22.78° C 50% 1015.7 hPa 4.57 mm - - -
1788184931 22.78° C 54% 1015.6 hPa 4.57 mm - - -
1788183131 22.22° C 56% 1015.9 hPa 4.57 mm - - -

* Rain since midnight (hover to see other rain measurements)
** Current wind speed in m/s (hover to see current wind gust speed)